[[{"header":{"parameterUnit":"m.s-1","parameterCategory":1,"la1":30.2991,"la2":30.254,"lo1":-89.0895,"lo2":-89.0444,"dy":0.0017,"dx":0.0017,"nx":28,"ny":28,"refTime":"2024-08-30T09:00:00:Z","depth":0,"parameterNumber":2,"parameterNumberName":"U-component_of_WINDS"},"data":[0,0,0,0,0,0,0,0,0,0,0,0,0,0,0,0,0,0,0,0,0,0,0,0,0,0,0,0,0,0,0,0,0,0,0,0,0,0,0,0,0,0,0,0,0,0,0,0,0,0,0,0,0,0,0,0,0,0,-7.3093,-7.3093,0,-7.3103,-7.3103,-7.3103,-7.2995,-7.2993,-7.299,-7.2987,-7.2994,-7.2997,-7.3,0,0,0,0,0,0,0,0,0,0,0,0,0,-7.2979,-7.2982,-7.3093,-7.3093,-7.3093,-7.3103,-7.3103,-7.3103,-7.2996,-7.2992,-7.2989,-7.2985,-7.2993,-7.2997,-7.3,0,0,0,0,0,0,0,0,0,0,0,0,0,-7.3013,-7.2983,-7.3093,-7.3041,-7.3036,-7.3103,-7.3103,-7.3103,-7.2997,-7.2992,-7.2988,-7.2984,-7.2992,-7.2997,-7.3001,-7.3116,0,0,-7.3014,-7.3016,0,0,0,0,0,0,0,0,-7.3011,-7.3017,-7.3048,-7.3045,-7.304,-7.3043,-7.3065,-7.3107,-7.2998,-7.3012,-7.2987,-7.2982,-7.3014,-7.3016,-7.3028,-7.3117,-7.3117,-7.3015,-7.3017,-7.3019,-7.3021,0,0,0,0,0,0,0,-7.3009,-7.3016,-7.3096,-7.3049,-7.3044,-7.3016,-7.3016,-7.3073,-7.3037,-7.301,-7.3002,-7.3005,-7.3011,-7.3024,-7.3027,-7.3117,-7.3015,-7.3019,-7.3021,-7.3023,-7.33,-7.3305,0,0,0,0,0,0,-7.3014,-7.3015,-7.3096,-7.3097,-7.3014,-7.3022,-7.3022,-7.3047,-7.3037,-7.3031,-7.3009,-7.3,-7.3018,-7.3022,-7.3027,-7.3159,-7.3019,-7.3023,-7.3026,-7.3295,-7.3301,-7.3306,0,0,0,0,0,0,-7.3012,-7.3022,-7.3096,-7.3054,-7.3061,-7.3029,-7.3057,-7.3049,-7.3062,-7.3036,-7.3029,-7.3029,-7.3015,-7.3021,-7.3095,-7.3158,-7.3025,-7.3029,-7.329,-7.3297,-7.3304,-7.3427,0,0,0,0,0,0,-7.3009,-7.3022,-7.3066,-7.3056,-7.3064,-7.3164,-7.3061,-7.3052,-7.307,-7.3059,-7.3052,-7.3047,-7.3012,-7.3089,-7.3099,-7.3162,-7.3033,-7.3284,-7.3293,-7.3301,-7.3417,-7.3437,-7.3455,0,0,0,0,0,-7.3005,-7.31,-7.3069,-7.3079,-7.3118,-7.3168,-7.3172,-7.3131,-7.3076,-7.3119,-7.3102,-7.3047,-7.3151,-7.3097,-7.3108,-7.3173,-7.328,-7.3291,-7.3301,-7.3409,-7.3433,-7.3455,0,0,0,0,0,0,-7.3117,-7.3097,-7.3062,-7.3157,-7.3165,-7.315,-7.3203,-7.3159,-7.3182,-7.317,-7.3118,-7.3117,-7.3199,-7.3194,-7.3135,-7.3284,-7.3205,-7.3219,-7.3284,-7.3307,-7.3326,-7.3323,-7.3037,0,0,0,0,0,-7.3153,-7.3196,-7.3176,-7.3261,-7.3268,-7.3235,-7.3255,-7.3223,-7.3229,-7.3232,-7.322,-7.3228,-7.3261,-7.3285,-7.3315,-7.3418,-7.3413,-7.3468,-7.3487,-7.3502,-7.3513,-7.3565,-7.3589,-7.3341,-7.3341,-7.3341,0,0,-7.3226,-7.3221,-7.3251,-7.3284,-7.3286,-7.3331,-7.3238,-7.329,-7.3322,-7.3239,-7.3307,-7.33,-7.3305,-7.3394,-7.3432,-7.3392,-7.3582,-7.3516,-7.3529,-7.3531,-7.3579,-7.3602,-7.3623,-7.3348,-7.3347,-7.3346,0,0,-7.3383,-7.3385,-7.3454,-7.346,-7.3465,-7.3444,-7.3461,-7.3453,-7.3445,-7.3514,-7.3452,-7.349,-7.355,-7.3555,-7.3566,-7.3728,-7.3677,-7.3739,-7.3836,-7.3888,-7.3907,-7.3924,-7.3979,-7.4,-7.3751,-7.3751,-7.3752,0,-7.3473,-7.3538,-7.3496,-7.3551,-7.3567,-7.3496,-7.3566,-7.3573,-7.3588,-7.36,-7.3555,-7.3629,-7.3628,-7.3716,-7.3755,-7.3768,-7.3784,-7.3737,-7.3908,-7.3925,-7.394,-7.3992,-7.4013,-7.3759,-7.3758,-7.3757,-7.3756,0,-7.3648,-7.3695,-7.3751,-7.3768,-7.379,-7.3853,-7.3819,-7.3847,-7.3814,-7.3797,-7.3867,-7.3863,-7.389,-7.391,-7.3878,-7.3994,-7.3968,-7.3918,-7.3836,-7.3972,-7.4019,-7.4039,-7.3769,-7.3766,-7.3764,-7.3762,0,0,-7.387,-7.3865,-7.3886,-7.3893,-7.3895,-7.393,-7.399,-7.4018,-7.4041,-7.4056,-7.4102,-7.4157,-7.4109,-7.4122,-7.409,-7.4136,-7.4261,-7.4079,-7.4078,-7.411,-7.4386,-7.4421,-7.4445,-7.423,-7.4234,-7.4237,-7.4384,0,-7.402,-7.4121,-7.4086,-7.4189,-7.423,-7.4165,-7.4217,-7.4224,-7.4211,-7.4243,-7.4228,-7.4266,-7.4203,-7.421,-7.4253,-7.4237,-7.4315,-7.4227,-7.4271,-7.4273,-7.4267,-7.447,-7.4508,-7.4647,-7.4403,-7.4406,-7.4409,0,-7.4207,-7.4229,-7.4336,-7.4332,-7.4348,-7.4395,-7.4417,-7.4451,-7.4457,-7.4444,-7.446,-7.4419,-7.4476,-7.4399,-7.4476,-7.4417,-7.4434,-7.4429,-7.4434,-7.4432,-7.4346,-7.4471,-7.4691,-7.471,-7.4438,-7.4436,-7.4433,0,-7.4354,-7.4411,-7.4482,-7.4491,-7.4488,-7.4522,-7.4523,-7.4525,-7.4545,-7.4565,-7.4576,-7.4604,-7.4617,-7.4639,-7.4606,-7.4553,-7.4687,-7.4608,-7.4676,-7.4677,-7.4703,-7.4701,-7.4924,-7.4721,-7.4721,-7.4721,-7.472,0,-7.4522,-7.4589,-7.4548,-7.4592,-7.4665,-7.4625,-7.4699,-7.4692,-7.4695,-7.4735,-7.4682,-7.4721,-7.4677,-7.4712,-7.4687,-7.4753,-7.4761,-7.4751,-7.4742,-7.4753,-7.4754,-7.476,-7.4747,-7.4726,-7.4725,-7.4724,-7.4723,0,-7.4697,-7.4673,-7.4745,-7.4738,-7.4738,-7.4792,-7.4785,-7.4824,-7.4809,-7.486,-7.487,-7.4845,-7.4883,-7.4854,-7.4891,-7.4874,-7.4961,-7.4941,-7.4959,-7.4952,-7.502,-7.5012,-7.5252,-7.528,-7.5063,-7.5065,-7.5066,0,-7.4803,-7.4854,-7.4853,-7.4876,-7.488,-7.4919,-7.4939,-7.4902,-7.4924,-7.4937,-7.4974,-7.5009,-7.5033,-7.5097,-7.5081,-7.5109,-7.5087,-7.517,-7.5091,-7.51,-7.5084,-7.508,-7.5084,-7.5184,-7.5186,-7.5189,-7.519,0,-7.4994,-7.498,-7.5011,-7.5039,-7.5064,-7.5083,-7.5098,-7.5121,-7.5083,-7.5111,-7.515,-7.517,-7.5209,-7.5242,-7.5265,-7.5264,-7.5221,-7.5216,-7.5232,-7.5241,-7.5248,-7.5242,-7.4998,-7.5209,-7.5207,-7.5206,-7.5205,-7.5204,-7.5135,-7.5177,-7.5182,-7.5219,-7.5227,-7.5243,-7.5279,-7.5269,-7.5301,-7.5329,-7.5306,-7.5352,-7.5358,-7.5385,-7.539,-7.5425,-7.5391,-7.5416,-7.5421,-7.5427,-7.5435,-7.5247,-7.543,-7.5429,-7.5428,-7.5428,-7.5428,0,-7.532,-7.5322,-7.5356,-7.5379,-7.5408,-7.5367,-7.5382,-7.5408,-7.5449,-7.5459,-7.5485,-7.553,-7.5563,-7.5551,-7.558,-7.561,-7.559,-7.5618,-7.5613,-7.5614,-7.5465,-7.5446,-7.5634,-7.5633,-7.5633,-7.5633,-7.5633,-7.5633,-7.5419,-7.5487,-7.5474,-7.5545,-7.5545,-7.559,-7.5602,-7.5616,-7.5624,-7.5676,-7.5703,-7.5696,-7.5697,-7.5726,-7.5754,-7.575,-7.5761,-7.5796,-7.5784,-7.5645,-7.5624,-7.5605,-7.5586,-7.58,-7.58,-7.5929,-7.593,-7.5931]},{"header":{"parameterUnit":"m.s-1","parameterCategory":1,"la1":30.2991,"la2":30.254,"lo1":-89.0895,"lo2":-89.0444,"dy":0.0017,"dx":0.0017,"nx":28,"ny":28,"refTime":"2024-08-30T09:00:00:Z","depth":0,"parameterNumber":3,"parameterNumberName":"V-component_of_WINDS"},"data":[0,0,0,0,0,0,0,0,0,0,0,0,0,0,0,0,0,0,0,0,0,0,0,0,0,0,0,0,0,0,0,0,0,0,0,0,0,0,0,0,0,0,0,0,0,0,0,0,0,0,0,0,0,0,0,0,0,0,2.4494,2.4494,0,2.4521,2.4521,2.4522,2.4518,2.4517,2.4517,2.4516,2.4541,2.4543,2.4544,0,0,0,0,0,0,0,0,0,0,0,0,0,2.4438,2.4439,2.4494,2.4494,2.4495,2.4521,2.4521,2.4522,2.4518,2.4517,2.4517,2.4516,2.4541,2.4542,2.4544,0,0,0,0,0,0,0,0,0,0,0,0,0,2.4463,2.4439,2.4494,2.4496,2.4496,2.4521,2.4521,2.4522,2.4518,2.4517,2.4517,2.4516,2.4541,2.4542,2.4544,2.4567,0,0,2.4549,2.455,0,0,0,0,0,0,0,0,2.4462,2.4465,2.4495,2.4496,2.4496,2.4515,2.4511,2.4537,2.4518,2.451,2.4516,2.4516,2.4533,2.4535,2.4542,2.4568,2.4569,2.4549,2.455,2.4551,2.4551,0,0,0,0,0,0,0,2.446,2.4464,2.4505,2.4496,2.4496,2.4495,2.4498,2.4516,2.4525,2.451,2.451,2.4514,2.4533,2.454,2.4542,2.457,2.4549,2.455,2.4551,2.4552,2.4618,2.4619,0,0,0,0,0,0,2.4458,2.4463,2.4504,2.4505,2.4477,2.4497,2.45,2.451,2.4525,2.4526,2.4514,2.4513,2.4538,2.454,2.4543,2.4572,2.4551,2.4552,2.4553,2.4617,2.4618,2.4619,0,0,0,0,0,0,2.4457,2.4462,2.4503,2.4484,2.4489,2.4498,2.451,2.4511,2.4518,2.4527,2.4529,2.452,2.4537,2.4541,2.4562,2.4573,2.4553,2.4554,2.4616,2.4618,2.4619,2.463,0,0,0,0,0,0,2.4455,2.4461,2.447,2.4484,2.449,2.4521,2.451,2.4512,2.4521,2.452,2.4533,2.4534,2.4537,2.4559,2.4563,2.4575,2.4556,2.4615,2.4617,2.4618,2.4629,2.4631,2.4634,0,0,0,0,0,2.4453,2.4472,2.4471,2.4476,2.4502,2.4522,2.4525,2.4528,2.4522,2.4531,2.4537,2.4534,2.4571,2.4562,2.4566,2.4578,2.4615,2.4617,2.4618,2.4627,2.4631,2.4634,0,0,0,0,0,0,2.4457,2.4473,2.4473,2.4496,2.4508,2.4521,2.4532,2.4532,2.4545,2.4543,2.4546,2.4549,2.4571,2.4576,2.4565,2.4602,2.4592,2.4595,2.4597,2.4601,2.4603,2.4601,2.4557,0,0,0,0,0,2.4461,2.4476,2.4489,2.4509,2.4515,2.4523,2.4532,2.4534,2.4545,2.455,2.4558,2.4569,2.4583,2.4592,2.4606,2.463,2.4633,2.464,2.4643,2.4645,2.4647,2.4661,2.4665,2.4625,2.4625,2.4625,0,0,2.4468,2.4479,2.4488,2.451,2.4519,2.4535,2.4527,2.4543,2.4555,2.4552,2.4573,2.4579,2.4591,2.4614,2.4625,2.462,2.4659,2.4647,2.4649,2.465,2.4663,2.4667,2.4671,2.4626,2.4626,2.4626,0,0,2.449,2.45,2.4518,2.4528,2.4543,2.4548,2.4552,2.4566,2.4571,2.4592,2.4591,2.4604,2.4629,2.4638,2.4646,2.4674,2.4671,2.4678,2.4691,2.4705,2.4708,2.4711,2.4721,2.4725,2.468,2.468,2.468,0,2.4497,2.4522,2.4527,2.4544,2.4554,2.4554,2.4572,2.4581,2.4599,2.4606,2.46,2.4632,2.464,2.4666,2.4673,2.4679,2.4684,2.4676,2.4707,2.471,2.4713,2.4723,2.4727,2.4681,2.4681,2.4681,2.4681,0,2.453,2.4547,2.456,2.4579,2.459,2.4607,2.4615,2.4626,2.4627,2.4634,2.4655,2.4666,2.4682,2.4688,2.4689,2.4715,2.4711,2.4707,2.4696,2.4717,2.4727,2.473,2.4682,2.4682,2.4682,2.4681,0,0,2.4553,2.4577,2.4581,2.4591,2.4608,2.4621,2.4639,2.4656,2.4665,2.4678,2.4693,2.4715,2.4712,2.4721,2.4723,2.4735,2.4757,2.4729,2.473,2.4734,2.4786,2.479,2.4794,2.4756,2.4757,2.4758,2.4785,0,2.4577,2.461,2.4616,2.4644,2.466,2.4661,2.4677,2.4689,2.4696,2.471,2.4717,2.4733,2.4727,2.4733,2.4745,2.4752,2.4768,2.475,2.477,2.4771,2.4767,2.4799,2.4802,2.4828,2.4789,2.479,2.479,0,2.4608,2.4624,2.4654,2.4671,2.4678,2.4692,2.4709,2.4723,2.4737,2.4741,2.4753,2.4754,2.4773,2.4763,2.4789,2.4777,2.4785,2.4791,2.4792,2.4793,2.4781,2.4801,2.4836,2.484,2.4796,2.4795,2.4795,0,2.4623,2.4651,2.4674,2.4681,2.4701,2.4711,2.472,2.4734,2.4744,2.4759,2.4766,2.4783,2.4791,2.4804,2.481,2.4802,2.4836,2.4826,2.484,2.484,2.4846,2.4846,2.4883,2.4852,2.4852,2.4852,2.4852,0,2.4648,2.4667,2.4681,2.4694,2.4715,2.4723,2.4743,2.4751,2.4764,2.4779,2.4781,2.4795,2.4802,2.4817,2.4822,2.4843,2.4847,2.4851,2.4852,2.4851,2.485,2.4856,2.4854,2.4853,2.4853,2.4853,2.4852,0,2.4667,2.4677,2.4702,2.472,2.4725,2.474,2.4754,2.4768,2.4775,2.4795,2.4799,2.4811,2.4829,2.4837,2.4858,2.4861,2.4886,2.4886,2.4882,2.4882,2.4895,2.4894,2.4937,2.4943,2.4909,2.4909,2.4909,0,2.4683,2.4698,2.4718,2.4729,2.4738,2.4756,2.4767,2.4775,2.4787,2.4805,2.4816,2.4835,2.485,2.4879,2.4889,2.4906,2.4906,2.492,2.4908,2.4907,2.4906,2.4905,2.4907,2.4922,2.4922,2.4922,2.4923,0,2.4709,2.4714,2.4731,2.4751,2.4765,2.478,2.4794,2.4803,2.4813,2.4826,2.4846,2.4858,2.4881,2.49,2.4918,2.4926,2.4926,2.4927,2.4931,2.4929,2.4927,2.4929,2.4887,2.4925,2.4925,2.4925,2.4925,2.4924,2.4727,2.4741,2.4758,2.4777,2.479,2.4804,2.4818,2.4828,2.4845,2.4865,2.4869,2.489,2.4905,2.4929,2.4939,2.4955,2.4951,2.4957,2.4958,2.496,2.4961,2.4924,2.4958,2.4958,2.4958,2.4958,2.4958,0,2.4754,2.4766,2.4784,2.4805,2.4821,2.4821,2.4838,2.485,2.4869,2.4884,2.49,2.4922,2.4941,2.4953,2.4972,2.4982,2.4983,2.4987,2.4986,2.4988,2.4963,2.4957,2.4986,2.4986,2.4986,2.4986,2.4986,2.4986,2.477,2.4794,2.4801,2.4831,2.4842,2.4864,2.4874,2.4887,2.4899,2.4925,2.4941,2.4949,2.4963,2.4983,2.5,2.5003,2.5009,2.5014,2.5017,2.4993,2.499,2.4987,2.4982,2.5015,2.5015,2.5041,2.5041,2.5041]}]]